Location: Palau
(42.3086°N, 3.1507°E)
Time: 13:08:07
(UTC+00:00)

Cosmos 1610 Rocket - Pass Details

Date: 26 May 2020
Orbit: 954 x 1001 km, 82.9° (Epoch: 13 July)

Event Time Altitude Azimuth Distance (km) Brightness Sun altitude
Exits shadow 03:09:11 - 188° (S) 3,109 6.7 -10.9°
Reaches altitude 10° 03:10:20 10° 189° (S) 2,674 6.3 -10.7°
Maximum altitude 03:16:27 83° 277° (W) 967 4.5 -9.9°
Drops below altitude 10° 03:22:38 10° 6° (N) 2,697 7.5 -9.0°
Sets 03:25:09 0° 7° (N) 3,652 8.3 -8.7°
